TimeCDT,TemperatureF,Dew PointF,Humidity,Sea Level PressureIn,VisibilityMPH,Wind Direction,Wind SpeedMPH,Gust SpeedMPH,PrecipitationIn,Events,Conditions,WindDirDegrees,DateUTC
12:15 AM,41.0,37.4,87,29.88,10.0,Calm,Calm,-,N/A,,Clear,0,2012-09-21 05:15:00
12:35 AM,41.0,35.6,81,29.88,10.0,SSW,3.5,-,N/A,,Clear,200,2012-09-21 05:35:00
12:55 AM,41.0,37.4,87,29.87,10.0,Calm,Calm,-,N/A,,Scattered Clouds,0,2012-09-21 05:55:00
1:15 AM,41.0,37.4,87,29.87,10.0,Calm,Calm,-,N/A,,Scattered Clouds,0,2012-09-21 06:15:00
1:35 AM,41.0,37.4,87,29.87,10.0,Calm,Calm,-,N/A,,Clear,0,2012-09-21 06:35:00
1:55 AM,41.0,37.4,87,29.87,10.0,Calm,Calm,-,N/A,,Clear,0,2012-09-21 06:55:00
2:15 AM,41.0,37.4,87,29.86,10.0,Calm,Calm,-,N/A,,Clear,0,2012-09-21 07:15:00
2:35 AM,41.0,37.4,87,29.86,10.0,Calm,Calm,-,N/A,,Clear,0,2012-09-21 07:35:00
2:55 AM,41.0,37.4,87,29.85,10.0,Calm,Calm,-,N/A,,Scattered Clouds,0,2012-09-21 07:55:00
3:15 AM,41.0,37.4,87,29.84,10.0,Calm,Calm,-,N/A,,Mostly Cloudy,0,2012-09-21 08:15:00
3:35 AM,41.0,37.4,87,29.84,10.0,Calm,Calm,-,N/A,,Overcast,0,2012-09-21 08:35:00
3:55 AM,42.8,37.4,81,29.84,10.0,Calm,Calm,-,N/A,,Overcast,0,2012-09-21 08:55:00
4:15 AM,42.8,37.4,81,29.84,10.0,Calm,Calm,-,N/A,,Overcast,0,2012-09-21 09:15:00
4:35 AM,42.8,39.2,87,29.84,10.0,Calm,Calm,-,N/A,Rain,Light Rain,0,2012-09-21 09:35:00
4:55 AM,44.6,41.0,87,29.86,10.0,WSW,3.5,-,N/A,Rain,Light Rain,240,2012-09-21 09:55:00
5:15 AM,46.4,41.0,81,29.86,10.0,Calm,Calm,-,N/A,,Overcast,0,2012-09-21 10:15:00
5:35 AM,46.4,41.0,81,29.86,10.0,SW,3.5,-,N/A,,Light Drizzle,220,2012-09-21 10:35:00
5:55 AM,46.4,41.0,81,29.84,10.0,Calm,Calm,-,N/A,,Light Drizzle,0,2012-09-21 10:55:00
6:15 AM,46.4,41.0,81,29.83,10.0,Calm,Calm,-,N/A,,Overcast,0,2012-09-21 11:15:00
6:35 AM,46.4,42.8,87,29.82,10.0,ESE,3.5,-,N/A,,Overcast,120,2012-09-21 11:35:00
6:55 AM,46.4,42.8,87,29.82,10.0,Calm,Calm,-,N/A,,Overcast,0,2012-09-21 11:55:00
7:15 AM,46.4,42.8,87,29.82,10.0,Calm,Calm,-,N/A,,Overcast,0,2012-09-21 12:15:00
7:35 AM,46.4,42.8,87,29.82,10.0,Calm,Calm,-,N/A,,Overcast,0,2012-09-21 12:35:00
7:55 AM,48.2,44.6,87,29.83,10.0,Calm,Calm,-,N/A,,Mostly Cloudy,0,2012-09-21 12:55:00
8:15 AM,50.0,44.6,82,29.84,10.0,WNW,3.5,-,N/A,,Mostly Cloudy,290,2012-09-21 13:15:00
8:35 AM,51.8,41.0,67,29.84,10.0,West,4.6,-,N/A,,Scattered Clouds,280,2012-09-21 13:35:00
8:55 AM,53.6,42.8,67,29.83,10.0,West,5.8,-,N/A,,Clear,270,2012-09-21 13:55:00
9:15 AM,53.6,42.8,67,29.83,10.0,West,9.2,-,N/A,,Clear,260,2012-09-21 14:15:00
9:35 AM,55.4,41.0,58,29.83,10.0,West,9.2,-,N/A,,Clear,260,2012-09-21 14:35:00
9:55 AM,55.4,41.0,58,29.84,10.0,West,5.8,-,N/A,,Clear,270,2012-09-21 14:55:00
10:15 AM,55.4,41.0,58,29.84,10.0,West,8.1,-,N/A,,Clear,280,2012-09-21 15:15:00
10:35 AM,55.4,41.0,58,29.83,10.0,West,6.9,-,N/A,,Clear,270,2012-09-21 15:35:00
10:55 AM,59.0,41.0,51,29.82,10.0,West,6.9,-,N/A,,Clear,270,2012-09-21 15:55:00
11:15 AM,59.0,39.2,48,29.82,10.0,West,8.1,-,N/A,,Scattered Clouds,280,2012-09-21 16:15:00
11:35 AM,59.0,39.2,48,29.82,10.0,West,8.1,-,N/A,,Scattered Clouds,270,2012-09-21 16:35:00
11:55 AM,60.8,37.4,42,29.82,10.0,West,8.1,-,N/A,,Clear,270,2012-09-21 16:55:00
12:15 PM,59.0,39.2,48,29.82,10.0,WNW,9.2,-,N/A,,Scattered Clouds,290,2012-09-21 17:15:00
12:35 PM,59.0,37.4,45,29.82,10.0,West,8.1,16.1,N/A,,Scattered Clouds,270,2012-09-21 17:35:00
12:55 PM,59.0,39.2,48,29.81,10.0,WSW,5.8,-,N/A,,Scattered Clouds,250,2012-09-21 17:55:00
1:15 PM,59.0,37.4,45,29.81,10.0,WSW,10.4,-,N/A,,Scattered Clouds,250,2012-09-21 18:15:00
1:35 PM,60.8,37.4,42,29.81,10.0,West,8.1,-,N/A,,Mostly Cloudy,260,2012-09-21 18:35:00
1:55 PM,60.8,37.4,42,29.80,10.0,WSW,10.4,-,N/A,,Mostly Cloudy,250,2012-09-21 18:55:00
2:15 PM,60.8,37.4,42,29.79,10.0,WSW,10.4,-,N/A,,Overcast,240,2012-09-21 19:15:00
2:35 PM,60.8,37.4,42,29.78,10.0,WSW,10.4,16.1,N/A,,Mostly Cloudy,250,2012-09-21 19:35:00
2:55 PM,60.8,35.6,39,29.78,10.0,WNW,10.4,-,N/A,,Mostly Cloudy,300,2012-09-21 19:55:00
3:15 PM,62.6,37.4,39,29.76,10.0,WNW,10.4,-,N/A,,Scattered Clouds,300,2012-09-21 20:15:00
3:35 PM,62.6,37.4,39,29.76,10.0,WNW,10.4,16.1,N/A,,Mostly Cloudy,290,2012-09-21 20:35:00
3:55 PM,60.8,37.4,42,29.76,10.0,NW,9.2,-,N/A,,Overcast,310,2012-09-21 20:55:00
4:15 PM,59.0,37.4,45,29.76,10.0,NW,9.2,-,N/A,,Overcast,320,2012-09-21 21:15:00
4:35 PM,57.2,41.0,55,29.76,7.0,West,4.6,-,N/A,Rain,Light Rain,280,2012-09-21 21:35:00
4:55 PM,55.4,42.8,63,29.78,10.0,NW,10.4,-,N/A,Rain,Rain,310,2012-09-21 21:55:00
5:15 PM,51.8,44.6,76,29.77,4.0,Calm,Calm,-,0.02,Rain,Light Rain,0,2012-09-21 22:15:00
5:35 PM,51.8,46.4,82,29.78,10.0,NNW,4.6,-,0.02,,Mostly Cloudy,330,2012-09-21 22:35:00
6:15 PM,51.8,46.4,82,29.78,10.0,NNW,3.5,-,N/A,,Scattered Clouds,340,2012-09-21 23:15:00
6:35 PM,51.8,44.6,76,29.78,10.0,Calm,Calm,-,N/A,,Scattered Clouds,0,2012-09-21 23:35:00
6:55 PM,51.8,46.4,82,29.78,10.0,Calm,Calm,-,N/A,,Overcast,0,2012-09-21 23:55:00
7:15 PM,51.8,46.4,82,29.79,10.0,West,5.8,-,0.01,Rain,Rain,270,2012-09-22 00:15:00
7:35 PM,50.0,46.4,87,29.80,10.0,SW,9.2,-,0.02,Rain,Rain,230,2012-09-22 00:35:00
7:55 PM,50.0,46.4,87,29.78,10.0,SSW,4.6,-,0.02,,Overcast,200,2012-09-22 00:55:00
8:15 PM,50.0,46.4,87,29.79,10.0,Calm,Calm,-,N/A,,Overcast,0,2012-09-22 01:15:00
8:35 PM,50.0,46.4,87,29.79,10.0,Calm,Calm,-,N/A,,Overcast,0,2012-09-22 01:35:00
8:55 PM,50.0,44.6,82,29.79,10.0,Calm,Calm,-,N/A,,Overcast,0,2012-09-22 01:55:00
9:15 PM,50.0,44.6,82,29.80,10.0,NW,3.5,-,N/A,,Mostly Cloudy,320,2012-09-22 02:15:00
9:35 PM,48.2,44.6,87,29.80,10.0,WSW,3.5,-,N/A,,Scattered Clouds,250,2012-09-22 02:35:00
9:55 PM,46.4,44.6,93,29.80,10.0,Calm,Calm,-,N/A,,Clear,0,2012-09-22 02:55:00
10:15 PM,46.4,42.8,87,29.80,10.0,Calm,Calm,-,N/A,,Clear,0,2012-09-22 03:15:00
10:35 PM,46.4,42.8,87,29.79,10.0,Calm,Calm,-,N/A,,Clear,0,2012-09-22 03:35:00
10:55 PM,44.6,42.8,93,29.79,1.2,Calm,Calm,-,N/A,,Mist,0,2012-09-22 03:55:00
11:15 PM,42.8,41.0,93,29.78,0.2,Calm,Calm,-,N/A,Fog,Fog,0,2012-09-22 04:15:00
11:35 PM,42.8,41.0,93,29.78,0.5,Calm,Calm,-,N/A,Fog,Fog,0,2012-09-22 04:35:00
11:55 PM,42.8,39.2,87,29.78,0.2,Calm,Calm,-,N/A,Fog,Fog,0,2012-09-22 04:55:00